Home > Weather > Yazd > Past weeks

Flag for Iran Past Weather in Yazd, Iran — Yesterday and Last 2 Weeks

Now
91 °F

Clear.


Feels Like: 87 °F
Forecast: 74 / 96 °F
Wind: 7 mph from Southeast

Location: Yazd Airport

Current Time: Jun 26, 2016 at 11:47:08 PM

Latest Report: Jun 26, 2016 at 10:30 PM


Visibility: 10 mi

Pressure: 29.92 "Hg (26.12 "Hg at 1218m altitude)

Humidity: 10%

Dew Point: 28 °F

Location of YazdLocation

Past Weather in Yazd — Graph

°F

Yazd Temperature Yesterday

Maximum temperature yesterday: 100 °F (at 4:30 PM)
Minimum temperature yesterday: 73 °F (at 4:30 AM)
Average temperature yesterday: 87 °F

High & Low Weather Summary for the Past Weeks

 TemperatureHumidityPressure
High106 °F (Jun 19, 4:30 PM)29% (Jun 14, 6:30 AM)30.12 "Hg (Jun 14, 6:30 AM)
Low68 °F (Jun 15, 6:30 AM)2% (Jun 17, 4:30 PM)29.74 "Hg (Jun 16, 6:00 PM)
Average88 °F9%29.93 "Hg
* Reported Jun 11 10:30 PM — Jun 26 10:30 PM, Yazd, Weather by CustomWeather, © 2016

Note: Actual official high and low records may vary slightly from our data, if they occured in-between our weather recording intervals... More about our weather records

Advertising

Yazd Weather History for the Previous 24 Hours

Scroll right to see more
 ConditionsComfort  
Time TempWeatherWind HumidityBarometerVisibility
10:30 PM
Sun, Jun 26
91 °FClear.7 mph10%29.92 "Hg10 mi
10:00 PM91 °FClear.7 mph10%29.92 "Hg10 mi
9:30 PM93 °FSunny.5 mph10%29.92 "Hg10 mi
9:00 PM93 °FSunny.7 mph10%29.92 "Hg10 mi
8:30 PM95 °FSunny.7 mph9%29.89 "Hg10 mi
8:00 PM97 °FSunny.7 mph8%29.89 "Hg10 mi
7:30 PM99 °FPassing clouds.9 mph7%29.89 "HgN/A
7:00 PM99 °FPassing clouds.5 mph7%29.89 "HgN/A
6:30 PM99 °FPassing clouds.7 mph7%29.89 "HgN/A
6:00 PM100 °FPassing clouds.9 mph7%29.89 "HgN/A
5:30 PM100 °FPassing clouds.7 mph7%29.89 "HgN/A
5:00 PM100 °FPassing clouds.5 mph7%29.92 "HgN/A
4:30 PM100 °FPassing clouds.7 mph6%29.92 "HgN/A
4:00 PM100 °FPassing clouds.7 mph6%29.92 "HgN/A
3:30 PM100 °FPassing clouds.5 mph6%29.92 "HgN/A
2:30 PM97 °FPassing clouds.5 mph7%29.95 "HgN/A
1:30 PM97 °FPassing clouds.5 mph7%29.98 "HgN/A
12:30 PM95 °FPassing clouds.7 mph8%30.01 "HgN/A
12:00 PM93 °FSunny.7 mph8%30.01 "Hg10 mi
11:30 AM93 °FSunny.2 mph8%30.01 "Hg10 mi
11:00 AM91 °FSunny.2 mph10%30.01 "Hg10 mi
10:30 AM90 °FSunny.5 mph11%30.01 "Hg10 mi
10:00 AM86 °FSunny.2 mph12%30.04 "Hg10 mi
9:30 AM84 °FPassing clouds.5 mph13%30.04 "HgN/A
9:00 AM84 °FPassing clouds.2 mph12%30.04 "HgN/A
8:30 AM81 °FPassing clouds.2 mph14%30.01 "HgN/A
8:00 AM81 °FPassing clouds.5 mph14%30.01 "HgN/A
7:30 AM79 °FPassing clouds.2 mph15%30.01 "HgN/A
7:00 AM77 °FPassing clouds.2 mph15%30.01 "HgN/A
6:30 AM75 °FPassing clouds.No wind16%30.01 "HgN/A
6:00 AM75 °FPassing clouds.No wind16%29.98 "HgN/A
5:30 AM75 °FPassing clouds.2 mph15%29.98 "HgN/A
4:30 AM77 °FClear.2 mph15%29.98 "Hg10 mi
4:20 AM77 °FClear.2 mph15%29.98 "Hg10 mi
3:30 AM82 °FClear.2 mph13%29.95 "Hg10 mi
2:30 AM86 °FClear.7 mph10%29.95 "Hg10 mi
1:30 AM84 °FPassing clouds.9 mph10%29.95 "HgN/A
12:30 AM86 °FPassing clouds.9 mph11%29.95 "HgN/A
11:30 PM
Sat, Jun 25
88 °FPassing clouds.9 mph10%29.95 "HgN/A
11:00 PM90 °FClear.7 mph9%29.95 "Hg10 mi
Weather by CustomWeather, © 2016

See weather overviewHow to use our weather pages